Погода в Кирсанове

Россия / Тамбовская область     52°39′02″N   42°43′43″E
темп.,
°C
ветер,
м/с
пор.,
м/с
влажн.,
%
обл.,
%
осадки,
мм/ч
давл.,
гПа
погр.,
м
13 мая, чт
чт1300:00+8вюв22945 0.0 102119
03:00+7в33935 0.0 102133
06:00+9всв2595100 0.0 1019134
09:00+16в348155 0.0 1018527
12:00+16вюв3687100 0.2 1017240
15:00+18ююв35781 0.4 1016603
18:00+19юв12760 0.0 101675
21:00+15юв22866 0.0 101711
14 мая, пт
пт1400:00+14юв118795 0.0 101810
03:00+13вюв2289100 0.0 101817
06:00+15юв239090 0.0 101978
09:00+20юв347259 0.0 1018528
12:00+23юв455865 0.0 10181160
15:00+25юв5656100 0.0 10171243
18:00+22юв377486 0.0 1016179
21:00+18юв498993 0.5 1015147
15 мая, сб
сб1500:00+17юв4128683 0.0 1014199
03:00+16ююв51479100 0.0 1014283
06:00+15ююв51472100 0.0 1014290
09:00+20ю61465100 0.0 1015575
12:00+23ю711545 0.0 1015939
15:00+24ю510535 0.0 10141318
18:00+22ю366719 0.0 1014180
21:00+18ю33764 0.0 101425
16 мая, вс
вс1600:00+16зюз22886 0.0 101413
03:00+16зсз1190100 0.0 101511
06:00+17ссз1184100 0.0 101625
09:00+20в117122 0.4 1016340
12:00+24ю125811 0.0 10151251
15:00+26ююз1452100 0.3 10151760
18:00+23ю47655 0.0 1014216
21:00+19ю226352 0.0 101511
17 мая, пн
пн1700:00+17всв226996 0.0 101511
03:00+16в347754 0.0 101551
06:00+16вюв357859 0.0 1015107
09:00+23ююв475616 0.0 1015381
12:00+26ююв584198 0.0 10151127
15:00+26юв585077 0.0 10141127
18:00+23вюв3966100 0.0 1014218
21:00+19вюв4970100 0.0 1014126